User: anonymous   Login
Location: Byszew
(52.1813°N, 19.2693°E)
Time: 22:34:10
(UTC+00:00)
Language:

Sich 1 - Orbit

View from above orbital plane
View from above orbital plane
View from above satellite
View from above satellite

Ground track
Ground track

The orbit data is extracted from the following two-line orbital elements,

1 23657U 95046A   21124.86359024  .00000204  00000-0  20191-4 0  9997
2 23657  82.5293   8.5719 0023551  69.1044 291.2691 14.86282570387713
Epoch (UTC): 04 May 2021 20:43:34
Eccentricity: 0.0023551
inclination: 82.5293°
perigee height: 593 km
apogee height: 626 km
right ascension of ascending node: 8.5719°
argument of perigee: 69.1044°
revolutions per day: 14.86282570
mean anomaly at epoch: 291.2691°
orbit number at epoch: 38771

The dashed part of the orbit path shows where the satellite is in the earth's shadow,  

DLR